[[{"header":{"parameterUnit":"m.s-1","parameterCategory":1,"la1":30.2991,"la2":30.254,"lo1":-89.0895,"lo2":-89.0444,"dx":0.0017,"dy":0.0017,"nx":28,"ny":28,"refTime":"2023-01-21T15:00:00:Z","depth":0,"parameterNumber":2,"parameterNumberName":"U-component_of_WINDS"},"data":[0,0,0,0,0,0,0,0,0,0,0,0,0,0,0,0,0,0,0,0,0,0,0,0,0,0,0,0,0,0,0,0,0,0,0,0,0,0,0,0,0,0,0,0,0,0,0,0,0,0,0,0,0,0,0,0,0,0,3.4435,3.4436,0,3.4494,3.4495,3.4495,3.443,3.4428,3.4425,3.4423,3.4483,3.4487,3.449,0,0,0,0,0,0,0,0,0,0,0,0,0,3.4267,3.427,3.4435,3.4436,3.4437,3.4494,3.4495,3.4496,3.4431,3.4428,3.4425,3.4422,3.4481,3.4486,3.4491,0,0,0,0,0,0,0,0,0,0,0,0,0,3.4334,3.4271,3.4435,3.4411,3.441,3.4494,3.4495,3.4496,3.4431,3.4428,3.4424,3.442,3.448,3.4486,3.4491,3.4602,0,0,3.4509,3.4512,0,0,0,0,0,0,0,0,3.433,3.434,3.4414,3.4413,3.4411,3.4451,3.4457,3.4531,3.4432,3.4423,3.4423,3.4419,3.4475,3.4481,3.45,3.4605,3.4607,3.451,3.4513,3.4516,3.4517,0,0,0,0,0,0,0,3.4326,3.4338,3.4458,3.4415,3.4414,3.4398,3.4403,3.4471,3.4469,3.4424,3.4419,3.4427,3.4474,3.4495,3.4501,3.4608,3.451,3.4515,3.4518,3.4521,3.4807,3.4811,0,0,0,0,0,0,3.4324,3.4334,3.4457,3.446,3.4361,3.4404,3.441,3.4442,3.4468,3.4469,3.443,3.4424,3.4487,3.4495,3.4503,3.4635,3.4516,3.4521,3.4525,3.4803,3.4808,3.4813,0,0,0,0,0,0,3.4321,3.4335,3.4454,3.4396,3.441,3.4411,3.4447,3.4445,3.4466,3.4473,3.4472,3.4452,3.4484,3.4495,3.4578,3.4636,3.4524,3.4529,3.4798,3.4805,3.481,3.4899,0,0,0,0,0,0,3.4316,3.4335,3.4376,3.4397,3.4413,3.4528,3.4451,3.4449,3.4477,3.4469,3.4494,3.4494,3.4482,3.457,3.4584,3.4642,3.4534,3.4793,3.4801,3.4808,3.4891,3.4907,3.4921,0,0,0,0,0,3.431,3.4398,3.4379,3.4394,3.4465,3.4532,3.4541,3.4525,3.4481,3.4524,3.4528,3.4493,3.4628,3.4579,3.4594,3.4655,3.4789,3.4799,3.4808,3.4884,3.4904,3.4921,0,0,0,0,0,0,3.4383,3.4401,3.4379,3.4477,3.4504,3.4521,3.4573,3.4547,3.4586,3.4577,3.4556,3.4562,3.4651,3.4661,3.4607,3.4764,3.4701,3.4714,3.4754,3.4773,3.4788,3.4784,3.4539,0,0,0,0,0,3.4411,3.4464,3.4476,3.4561,3.4575,3.4572,3.4601,3.4587,3.4613,3.4624,3.4634,3.4662,3.471,3.4742,3.4787,3.4892,3.4897,3.4942,3.4957,3.497,3.4981,3.5038,3.5059,3.4843,3.4843,3.4843,0,0,3.4468,3.4484,3.4519,3.4576,3.4595,3.465,3.4582,3.4643,3.4683,3.4633,3.4712,3.4722,3.475,3.4846,3.4888,3.4857,3.5042,3.4981,3.4991,3.4996,3.505,3.507,3.5089,3.4849,3.4848,3.4847,0,0,3.4601,3.4618,3.4692,3.4712,3.4742,3.474,3.4758,3.478,3.4784,3.4863,3.4827,3.4875,3.4959,3.4981,3.5004,3.5147,3.5117,3.5162,3.5242,3.5299,3.5316,3.5331,3.5382,3.5401,3.5174,3.5174,3.5174,0,3.4668,3.475,3.4732,3.4797,3.4823,3.4781,3.4855,3.4876,3.4919,3.4939,3.4903,3.5008,3.5025,3.5125,3.516,3.518,3.52,3.5159,3.5315,3.5329,3.5343,3.5392,3.5412,3.5179,3.5179,3.5178,3.5178,0,3.4832,3.4889,3.4945,3.4988,3.5021,3.509,3.5083,3.5119,3.5103,3.5104,3.5187,3.5205,3.5253,3.5276,3.5261,3.5375,3.5355,3.5318,3.5254,3.5369,3.5415,3.5434,3.5187,3.5185,3.5183,3.5182,0,0,3.5011,3.5045,3.5066,3.5085,3.5116,3.516,3.5228,3.5276,3.5307,3.5339,3.5395,3.5468,3.5434,3.5459,3.5446,3.5496,3.5609,3.5452,3.5452,3.5481,3.5737,3.5765,3.5787,3.5589,3.5593,3.5596,3.5735,0,3.5144,3.5261,3.5248,3.536,3.5413,3.5375,3.5434,3.546,3.5463,3.5509,3.5513,3.5565,3.5516,3.5532,3.5579,3.5585,3.566,3.5575,3.5642,3.5644,3.5636,3.5811,3.584,3.5971,3.5753,3.5756,3.5758,0,3.5315,3.5354,3.5471,3.5495,3.5517,3.557,3.5614,3.5658,3.5687,3.5686,3.5716,3.5695,3.5763,3.5699,3.5793,3.5736,3.5762,3.577,3.5774,3.578,3.5708,3.5821,3.6012,3.6032,3.5786,3.5784,3.5782,0,3.5434,3.5516,3.5597,3.5615,3.5645,3.5683,3.5698,3.5723,3.5753,3.5791,3.5811,3.5857,3.5882,3.5918,3.5909,3.5863,3.6006,3.5941,3.6008,3.6008,3.6039,3.6037,3.6237,3.6057,3.6056,3.6056,3.6056,0,3.5585,3.5658,3.5651,3.5701,3.5782,3.5767,3.5848,3.5858,3.5881,3.5932,3.5902,3.5951,3.5937,3.5986,3.598,3.6059,3.6071,3.6072,3.607,3.6075,3.6075,3.6092,3.6082,3.6061,3.606,3.6059,3.6058,0,3.5731,3.5729,3.5815,3.5837,3.5845,3.5904,3.5923,3.597,3.5972,3.6037,3.6052,3.6055,3.6111,3.6107,3.6169,3.6165,3.6264,3.625,3.6254,3.6251,3.6318,3.6312,3.6535,3.6564,3.6366,3.6368,3.6369,0,3.5827,3.5882,3.5911,3.5944,3.5961,3.6013,3.6044,3.6032,3.6066,3.6104,3.6147,3.62,3.6242,3.6333,3.6341,3.6389,3.6376,3.6452,3.6383,3.6387,3.6378,3.6375,3.638,3.6465,3.6467,3.6469,3.647,0,3.5997,3.5994,3.604,3.6087,3.6125,3.616,3.6193,3.6221,3.6213,3.6252,3.6309,3.6342,3.6407,3.646,3.6506,3.6521,3.6495,3.6492,3.651,3.6516,3.6516,3.6517,3.6291,3.6487,3.6485,3.6484,3.6483,3.6482,3.6121,3.6169,3.6197,3.625,3.6274,3.6305,3.6351,3.636,3.6407,3.6459,3.6449,3.6514,3.6542,3.6602,3.6621,3.6672,3.6644,3.667,3.6677,3.6684,3.6692,3.6508,3.668,3.6679,3.6679,3.6679,3.6678,0,3.629,3.6307,3.6355,3.6403,3.6445,3.6417,3.6452,3.6489,3.6546,3.6575,3.6618,3.6684,3.6736,3.6749,3.6799,3.6837,3.6826,3.6851,3.6847,3.6851,3.6713,3.6692,3.6858,3.6858,3.6858,3.6858,3.6858,3.6858,3.6383,3.6463,3.6464,3.6556,3.6572,3.6635,3.6658,3.6687,3.6711,3.6786,3.683,3.6838,3.6861,3.6913,3.696,3.6962,3.6982,3.7011,3.7009,3.6879,3.6861,3.6844,3.6824,3.7016,3.7016,3.7144,3.7145,3.7146]},{"header":{"parameterUnit":"m.s-1","parameterCategory":1,"la1":30.2991,"la2":30.254,"lo1":-89.0895,"lo2":-89.0444,"dx":0.0017,"dy":0.0017,"nx":28,"ny":28,"refTime":"2023-01-21T15:00:00:Z","depth":0,"parameterNumber":3,"parameterNumberName":"V-component_of_WINDS"},"data":[0,0,0,0,0,0,0,0,0,0,0,0,0,0,0,0,0,0,0,0,0,0,0,0,0,0,0,0,0,0,0,0,0,0,0,0,0,0,0,0,0,0,0,0,0,0,0,0,0,0,0,0,0,0,0,0,0,0,-5.1501,-5.1503,0,-5.1644,-5.1645,-5.1647,-5.1609,-5.1606,-5.1603,-5.16,-5.1746,-5.1752,-5.1758,0,0,0,0,0,0,0,0,0,0,0,0,0,-5.1197,-5.1202,-5.1501,-5.1503,-5.1505,-5.1643,-5.1645,-5.1647,-5.1609,-5.1606,-5.1602,-5.1599,-5.1743,-5.1751,-5.1759,0,0,0,0,0,0,0,0,0,0,0,0,0,-5.1333,-5.1204,-5.1501,-5.1502,-5.1504,-5.1643,-5.1645,-5.1648,-5.161,-5.1606,-5.1601,-5.1597,-5.1741,-5.175,-5.176,-5.1906,0,0,-5.179,-5.1794,0,0,0,0,0,0,0,0,-5.1325,-5.1344,-5.15,-5.1503,-5.1505,-5.1604,-5.1591,-5.1734,-5.1611,-5.157,-5.16,-5.1595,-5.1702,-5.1715,-5.1751,-5.1913,-5.1919,-5.1791,-5.1797,-5.1801,-5.1804,0,0,0,0,0,0,0,-5.1316,-5.1338,-5.1558,-5.1503,-5.1505,-5.1496,-5.1511,-5.1618,-5.1658,-5.1573,-5.157,-5.1588,-5.1702,-5.1741,-5.1754,-5.1921,-5.1791,-5.1799,-5.1805,-5.1809,-5.2211,-5.2216,0,0,0,0,0,0,-5.1305,-5.133,-5.1553,-5.1562,-5.1403,-5.1505,-5.1521,-5.1576,-5.1657,-5.1665,-5.1591,-5.1586,-5.1727,-5.1742,-5.1759,-5.1935,-5.1801,-5.181,-5.1816,-5.2206,-5.2212,-5.2217,0,0,0,0,0,0,-5.1298,-5.1325,-5.1547,-5.1446,-5.1473,-5.1515,-5.1577,-5.1581,-5.1621,-5.1671,-5.1678,-5.1624,-5.1724,-5.1745,-5.187,-5.194,-5.1814,-5.1823,-5.2201,-5.2208,-5.2215,-5.229,0,0,0,0,0,0,-5.129,-5.1323,-5.1379,-5.1447,-5.1479,-5.1656,-5.1581,-5.1587,-5.1638,-5.1631,-5.1703,-5.1711,-5.1722,-5.1856,-5.188,-5.1951,-5.1831,-5.2194,-5.2204,-5.2212,-5.2281,-5.2299,-5.2314,0,0,0,0,0,-5.1279,-5.1394,-5.1382,-5.1409,-5.1549,-5.166,-5.1678,-5.1689,-5.1643,-5.17,-5.1732,-5.1709,-5.1928,-5.1869,-5.1895,-5.1971,-5.219,-5.2201,-5.2212,-5.2274,-5.2295,-5.2313,0,0,0,0,0,0,-5.1333,-5.1403,-5.139,-5.1531,-5.159,-5.1654,-5.1725,-5.1711,-5.1784,-5.1776,-5.1786,-5.1802,-5.193,-5.1963,-5.1895,-5.2117,-5.2053,-5.2069,-5.2091,-5.2111,-5.2127,-5.2117,-5.1839,0,0,0,0,0,-5.1361,-5.1445,-5.1502,-5.162,-5.1651,-5.1683,-5.1732,-5.1735,-5.1797,-5.1822,-5.1863,-5.1924,-5.2006,-5.2061,-5.2139,-5.2286,-5.2301,-5.2351,-5.2367,-5.238,-5.2395,-5.2475,-5.2498,-5.2253,-5.2253,-5.2252,0,0,-5.142,-5.1469,-5.1521,-5.1633,-5.1679,-5.1766,-5.1704,-5.1799,-5.1864,-5.1836,-5.1957,-5.1989,-5.2058,-5.2194,-5.2256,-5.2225,-5.2466,-5.2394,-5.2404,-5.2411,-5.2489,-5.2512,-5.2532,-5.226,-5.2259,-5.2258,0,0,-5.1572,-5.1617,-5.1721,-5.1769,-5.184,-5.1861,-5.1886,-5.1953,-5.1973,-5.2095,-5.2075,-5.2153,-5.2295,-5.2345,-5.2389,-5.2561,-5.2542,-5.2586,-5.2671,-5.2749,-5.2768,-5.2785,-5.2847,-5.2869,-5.26,-5.26,-5.2601,0,-5.1636,-5.1767,-5.1776,-5.1873,-5.1923,-5.1902,-5.2008,-5.2053,-5.2147,-5.2181,-5.2146,-5.2324,-5.2369,-5.2517,-5.2559,-5.2595,-5.2624,-5.2578,-5.2765,-5.2782,-5.2798,-5.2857,-5.288,-5.2605,-5.2605,-5.2604,-5.2604,0,-5.1843,-5.1934,-5.2009,-5.21,-5.2158,-5.2259,-5.2284,-5.2342,-5.234,-5.2365,-5.2489,-5.2542,-5.2632,-5.2667,-5.2666,-5.2816,-5.2794,-5.2762,-5.2697,-5.2826,-5.2882,-5.2905,-5.2612,-5.2611,-5.2609,-5.2608,0,0,-5.2032,-5.2128,-5.2155,-5.2197,-5.2274,-5.2344,-5.2444,-5.2532,-5.2582,-5.2647,-5.2731,-5.2853,-5.2823,-5.2873,-5.2878,-5.2947,-5.308,-5.2906,-5.2907,-5.2937,-5.3249,-5.3273,-5.3299,-5.3068,-5.3073,-5.3076,-5.3243,0,-5.2191,-5.2367,-5.2379,-5.2539,-5.2623,-5.2605,-5.2692,-5.2749,-5.2775,-5.285,-5.2879,-5.2965,-5.2919,-5.295,-5.3017,-5.305,-5.3143,-5.3038,-5.3147,-5.3151,-5.3131,-5.3328,-5.3353,-5.3508,-5.3265,-5.3268,-5.3271,0,-5.24,-5.2472,-5.264,-5.2706,-5.2742,-5.282,-5.2902,-5.2974,-5.3039,-5.3053,-5.3109,-5.3105,-5.3208,-5.314,-5.3282,-5.321,-5.3255,-5.3279,-5.3285,-5.3295,-5.3219,-5.3344,-5.3558,-5.3581,-5.3305,-5.3303,-5.33,0,-5.2522,-5.2661,-5.2779,-5.2815,-5.2895,-5.2951,-5.2986,-5.3047,-5.3099,-5.3171,-5.3205,-5.3287,-5.3333,-5.3397,-5.3415,-5.3364,-5.3557,-5.349,-5.3572,-5.3571,-5.3613,-5.361,-5.3837,-5.3642,-5.3642,-5.3641,-5.3641,0,-5.2699,-5.2802,-5.2835,-5.2908,-5.3024,-5.3037,-5.3151,-5.3183,-5.3237,-5.3316,-5.3305,-5.338,-5.3399,-5.3477,-5.3492,-5.3607,-5.3628,-5.3642,-5.3645,-5.3644,-5.3642,-5.3673,-5.3663,-5.3648,-5.3646,-5.3645,-5.3644,0,-5.2854,-5.288,-5.3008,-5.3074,-5.3093,-5.3175,-5.3231,-5.3301,-5.3326,-5.3426,-5.345,-5.3489,-5.3581,-5.3605,-5.3715,-5.3725,-5.3861,-5.3854,-5.384,-5.3839,-5.392,-5.3912,-5.4175,-5.4211,-5.3992,-5.3994,-5.3996,0,-5.2965,-5.3044,-5.3118,-5.317,-5.3209,-5.3293,-5.3347,-5.3362,-5.3419,-5.3499,-5.3559,-5.365,-5.3723,-5.387,-5.3908,-5.3992,-5.3986,-5.4073,-5.3999,-5.3995,-5.3988,-5.3983,-5.3991,-5.4087,-5.4089,-5.4091,-5.4093,0,-5.3159,-5.3168,-5.3246,-5.3329,-5.3393,-5.3459,-5.3522,-5.3565,-5.359,-5.3654,-5.3748,-5.3804,-5.3916,-5.4006,-5.4091,-5.4128,-5.4115,-5.4116,-5.4139,-5.4138,-5.4127,-5.4135,-5.3878,-5.411,-5.4108,-5.4107,-5.4106,-5.4105,-5.3296,-5.3365,-5.3429,-5.3516,-5.3565,-5.3624,-5.3694,-5.3728,-5.3806,-5.3899,-5.3903,-5.4005,-5.4068,-5.4181,-5.4223,-5.4303,-5.4277,-5.431,-5.4319,-5.4327,-5.4334,-5.4114,-5.4318,-5.4318,-5.4317,-5.4317,-5.4317,0,-5.3489,-5.3529,-5.3609,-5.3698,-5.3767,-5.3749,-5.3818,-5.3877,-5.3966,-5.4026,-5.4099,-5.4207,-5.4294,-5.434,-5.4427,-5.4482,-5.4478,-5.4504,-5.45,-5.4509,-5.4352,-5.4324,-5.4506,-5.4506,-5.4506,-5.4506,-5.4506,-5.4506,-5.3598,-5.3716,-5.3733,-5.3875,-5.3914,-5.4014,-5.4055,-5.411,-5.4158,-5.4279,-5.4352,-5.4381,-5.4435,-5.4526,-5.4606,-5.4617,-5.4649,-5.4679,-5.4687,-5.4539,-5.452,-5.4502,-5.4475,-5.4686,-5.4686,-5.4837,-5.4839,-5.484]}]]